| time (UTC) | temp F | wind direction | speed MPH | gust MPH | rain 1hr in | rain 24hr in | rain mn in | humidity % | barometer mb |
| 20260504174014 | 72 | 210 | 6.0 | 15.0 | 0.00 | 0.00 | 0.00 | 37 | 1002.5 |
| 20260504173513 | 72 | 196 | 5.0 | 13.0 | 0.00 | 0.00 | 0.00 | 39 | 1002.6 |
| 20260504173032 | 72 | 163 | 3.0 | 13.0 | 0.00 | 0.00 | 0.00 | 41 | 1002.6 |
| 20260504172512 | 72 | 160 | 3.0 | 13.0 | 0.00 | 0.00 | 0.00 | 41 | 1002.6 |
| 20260504172016 | 72 | 239 | 3.0 | 10.0 | 0.00 | 0.00 | 0.00 | 41 | 1002.7 |
| 20260504171529 | 72 | 158 | 4.0 | 16.0 | 0.00 | 0.00 | 0.00 | 43 | 1002.7 |
| 20260504171013 | 72 | 135 | 5.0 | 16.0 | 0.00 | 0.00 | 0.00 | 43 | 1002.8 |
| 20260504170510 | 71 | 283 | 6.0 | 13.0 | 0.00 | 0.00 | 0.00 | 41 | 1002.7 |
| 20260504151013 | 64 | 180 | 5.0 | 15.0 | 0.00 | 0.00 | 0.00 | 56 | 1004.3 |
| 20260504150510 | 63 | 199 | 3.0 | 11.0 | 0.00 | 0.00 | 0.00 | 58 | 1004.3 |
| 20260504141013 | 59 | 238 | 4.0 | 11.0 | 0.00 | 0.00 | 0.00 | 63 | 1004.7 |
| 20260504140512 | 59 | 206 | 3.0 | 11.0 | 0.00 | 0.00 | 0.00 | 64 | 1004.7 |
| 20260504130513 | 54 | 237 | 2.0 | 9.0 | 0.00 | 0.00 | 0.00 | 69 | 1005.2 |
| 20260504110512 | 48 | 175 | 1.0 | 6.0 | 0.00 | 0.00 | 0.00 | 76 | 1005.3 |
| 20260504100513 | 48 | 163 | 1.0 | 4.0 | 0.00 | 0.00 | 0.00 | 75 | 1005.4 |
| 20260504081529 | 49 | 190 | 1.0 | 11.0 | 0.00 | 0.00 | 0.00 | 72 | 1005.8 |
| 20260504081013 | 49 | 214 | 2.0 | 9.0 | 0.00 | 0.00 | 0.00 | 71 | 1005.8 |
| 20260504080513 | 49 | 168 | 2.0 | 9.0 | 0.00 | 0.00 | 0.00 | 71 | 1005.9 |
| 20260504050512 | 52 | 193 | 2.0 | 13.0 | 0.00 | 0.00 | 0.00 | 63 | 1008.0 |
| 20260504045512 | 52 | 204 | 2.0 | 10.0 | 0.00 | 0.00 | 0.00 | 64 | 1008.0 |
| 20260504045010 | 52 | 124 | 3.0 | 13.0 | 0.00 | 0.00 | 0.00 | 64 | 1008.1 |
| 20260504044536 | 52 | 210 | 3.0 | 13.0 | 0.00 | 0.00 | 0.00 | 63 | 1008.1 |
| 20260504044012 | 52 | 249 | 3.0 | 11.0 | 0.00 | 0.00 | 0.00 | 64 | 1008.2 |
| 20260504043512 | 52 | 195 | 3.0 | 10.0 | 0.00 | 0.00 | 0.00 | 64 | 1008.1 |
| 20260504043041 | 52 | 185 | 3.0 | 13.0 | 0.00 | 0.00 | 0.00 | 63 | 1008.1 |
| 20260504042514 | 52 | 258 | 4.0 | 13.0 | 0.00 | 0.00 | 0.00 | 63 | 1008.1 |
| 20260504042017 | 52 | 224 | 3.0 | 12.0 | 0.00 | 0.00 | 0.00 | 63 | 1008.3 |
| 20260504041530 | 52 | 160 | 2.0 | 13.0 | 0.00 | 0.00 | 0.00 | 63 | 1008.3 |
| 20260504041013 | 52 | 185 | 2.0 | 13.0 | 0.00 | 0.00 | 0.00 | 63 | 1008.1 |
| 20260504040513 | 52 | 195 | 3.0 | 12.0 | 0.00 | 0.00 | 0.00 | 63 | 1008.2 |
| 20260504040033 | 52 | 0 | 4.0 | 13.0 | 0.00 | 0.00 | 0.00 | 63 | 1008.3 |
| 20260504035511 | 52 | 175 | 4.0 | 13.0 | 0.00 | 0.00 | 0.00 | 62 | 1008.3 |
| 20260504035012 | 53 | 175 | 2.0 | 9.0 | 0.00 | 0.00 | 0.00 | 63 | 1008.3 |
| 20260504034528 | 53 | 201 | 3.0 | 9.0 | 0.00 | 0.00 | 0.00 | 62 | 1008.3 |
| 20260504034011 | 53 | 224 | 2.0 | 10.0 | 0.00 | 0.00 | 0.00 | 61 | 1008.5 |
| 20260504033511 | 53 | 185 | 2.0 | 16.0 | 0.00 | 0.00 | 0.00 | 60 | 1008.5 |
| 20260504033028 | 53 | 240 | 2.0 | 16.0 | 0.00 | 0.00 | 0.00 | 60 | 1008.5 |
| 20260504032512 | 54 | 320 | 3.0 | 16.0 | 0.00 | 0.00 | 0.00 | 61 | 1008.6 |
| 20260504032012 | 54 | 246 | 2.0 | 13.0 | 0.00 | 0.00 | 0.00 | 61 | 1008.7 |
| 20260504031530 | 54 | 254 | 4.0 | 13.0 | 0.00 | 0.00 | 0.00 | 60 | 1008.6 |
| 20260504031013 | 54 | 229 | 2.0 | 11.0 | 0.00 | 0.00 | 0.00 | 60 | 1008.7 |
| 20260504030511 | 54 | 235 | 2.0 | 11.0 | 0.00 | 0.00 | 0.00 | 60 | 1008.7 |
| 20260504030029 | 54 | 245 | 2.0 | 10.0 | 0.00 | 0.00 | 0.00 | 60 | 1008.7 |
| 20260504025515 | 55 | 268 | 2.0 | 12.0 | 0.00 | 0.00 | 0.00 | 60 | 1008.7 |
| 20260504025014 | 55 | 299 | 3.0 | 12.0 | 0.00 | 0.00 | 0.00 | 59 | 1008.7 |
| 20260504024528 | 55 | 185 | 3.0 | 15.0 | 0.00 | 0.00 | 0.00 | 58 | 1008.7 |
| 20260504024013 | 55 | 223 | 2.0 | 15.0 | 0.00 | 0.00 | 0.00 | 57 | 1008.8 |
| 20260504023513 | 55 | 185 | 4.0 | 15.0 | 0.00 | 0.00 | 0.00 | 57 | 1008.8 |
| 20260504023030 | 55 | 268 | 3.0 | 14.0 | 0.00 | 0.00 | 0.00 | 57 | 1008.7 |
| 20260504022514 | 55 | 245 | 4.0 | 10.0 | 0.00 | 0.00 | 0.00 | 56 | 1008.8 |
| 20260504022013 | 55 | 277 | 2.0 | 13.0 | 0.00 | 0.00 | 0.00 | 56 | 1008.7 |
| 20260504021533 | 56 | 219 | 2.0 | 13.0 | 0.00 | 0.00 | 0.00 | 55 | 1008.6 |
| 20260504021012 | 56 | 198 | 3.0 | 13.0 | 0.00 | 0.00 | 0.00 | 55 | 1008.6 |
| 20260504020510 | 56 | 216 | 2.0 | 10.0 | 0.00 | 0.00 | 0.00 | 54 | 1008.7 |
| 20260504020034 | 56 | 170 | 4.0 | 10.0 | 0.00 | 0.00 | 0.00 | 55 | 1008.6 |
| 20260504015512 | 56 | 239 | 2.0 | 9.0 | 0.00 | 0.00 | 0.00 | 54 | 1008.6 |
| 20260504015011 | 56 | 243 | 2.0 | 12.0 | 0.00 | 0.00 | 0.00 | 53 | 1008.6 |
| 20260504014537 | 56 | 208 | 3.0 | 12.0 | 0.00 | 0.00 | 0.00 | 53 | 1008.4 |
| 20260504014013 | 56 | 139 | 2.0 | 9.0 | 0.00 | 0.00 | 0.00 | 53 | 1008.4 |
| 20260504013515 | 56 | 204 | 3.0 | 11.0 | 0.00 | 0.00 | 0.00 | 53 | 1008.4 |
| 20260504013031 | 56 | 217 | 4.0 | 11.0 | 0.00 | 0.00 | 0.00 | 51 | 1008.4 |
| 20260504012513 | 56 | 235 | 2.0 | 9.0 | 0.00 | 0.00 | 0.00 | 51 | 1008.4 |
| 20260504012013 | 56 | 235 | 3.0 | 10.0 | 0.00 | 0.00 | 0.00 | 52 | 1008.2 |
| 20260504011532 | 56 | 147 | 2.0 | 10.0 | 0.00 | 0.00 | 0.00 | 51 | 1008.3 |
| 20260504011012 | 56 | 194 | 3.0 | 10.0 | 0.00 | 0.00 | 0.00 | 51 | 1008.3 |
| 20260504010511 | 57 | 330 | 2.0 | 9.0 | 0.00 | 0.00 | 0.00 | 52 | 1008.3 |
| 20260504010028 | 57 | 237 | 2.0 | 11.0 | 0.00 | 0.00 | 0.00 | 51 | 1008.3 |
| 20260504005510 | 57 | 229 | 2.0 | 11.0 | 0.00 | 0.00 | 0.00 | 50 | 1008.2 |
| 20260504005012 | 57 | 166 | 2.0 | 8.0 | 0.00 | 0.00 | 0.00 | 50 | 1008.0 |
| 20260504004534 | 57 | 231 | 3.0 | 9.0 | 0.00 | 0.00 | 0.00 | 51 | 1007.9 |
| 20260504004013 | 57 | 243 | 3.0 | 11.0 | 0.00 | 0.00 | 0.00 | 49 | 1008.0 |
| 20260504003513 | 57 | 223 | 2.0 | 11.0 | 0.00 | 0.00 | 0.00 | 49 | 1008.0 |
| 20260504003029 | 57 | 240 | 3.0 | 10.0 | 0.00 | 0.00 | 0.00 | 49 | 1007.9 |
| 20260504002510 | 57 | 271 | 4.0 | 12.0 | 0.00 | 0.00 | 0.00 | 48 | 1007.9 |
| 20260504002010 | 57 | 185 | 3.0 | 12.0 | 0.00 | 0.00 | 0.00 | 49 | 1007.9 |
| 20260504001532 | 57 | 254 | 2.0 | 10.0 | 0.00 | 0.00 | 0.00 | 50 | 1008.0 |
| 20260504001013 | 58 | 175 | 4.0 | 10.0 | 0.00 | 0.00 | 0.00 | 47 | 1007.9 |
| 20260504000512 | 58 | 234 | 2.0 | 10.0 | 0.00 | 0.00 | 0.00 | 48 | 1008.0 |
| 20260504000029 | 58 | 200 | 2.0 | 10.0 | 0.00 | 0.00 | 0.00 | 47 | 1007.8 |
| 20260503235514 | 58 | 180 | 3.0 | 9.0 | 0.00 | 0.00 | 0.00 | 47 | 1007.8 |
| 20260503235012 | 58 | 197 | 2.0 | 9.0 | 0.00 | 0.00 | 0.00 | 47 | 1007.8 |
| 20260503234529 | 58 | 164 | 2.0 | 11.0 | 0.00 | 0.00 | 0.00 | 46 | 1007.9 |
| 20260503234012 | 58 | 192 | 2.0 | 11.0 | 0.00 | 0.00 | 0.00 | 46 | 1007.9 |
| 20260503233511 | 58 | 223 | 3.0 | 11.0 | 0.00 | 0.00 | 0.00 | 44 | 1007.9 |
| 20260503233029 | 59 | 241 | 2.0 | 9.0 | 0.00 | 0.00 | 0.00 | 46 | 1007.9 |
| 20260503232511 | 59 | 175 | 4.0 | 9.0 | 0.00 | 0.00 | 0.00 | 45 | 1007.9 |
| 20260503232010 | 59 | 185 | 2.0 | 11.0 | 0.00 | 0.00 | 0.00 | 45 | 1007.9 |
| 20260503231532 | 59 | 221 | 4.0 | 11.0 | 0.00 | 0.00 | 0.00 | 44 | 1007.9 |
| 20260503231013 | 59 | 205 | 4.0 | 11.0 | 0.00 | 0.00 | 0.00 | 45 | 1008.0 |
| 20260503230512 | 59 | 218 | 2.0 | 8.0 | 0.00 | 0.00 | 0.00 | 46 | 1008.0 |
| 20260503230032 | 59 | 237 | 2.0 | 8.0 | 0.00 | 0.00 | 0.00 | 44 | 1008.0 |
| 20260503225512 | 59 | 247 | 2.0 | 10.0 | 0.00 | 0.00 | 0.00 | 43 | 1007.9 |
| 20260503225012 | 59 | 212 | 2.0 | 10.0 | 0.00 | 0.00 | 0.00 | 44 | 1008.1 |
| 20260503224529 | 59 | 274 | 3.0 | 10.0 | 0.00 | 0.00 | 0.00 | 43 | 1008.0 |
| 20260503224012 | 59 | 291 | 3.0 | 9.0 | 0.00 | 0.00 | 0.00 | 43 | 1008.1 |
| 20260503223513 | 59 | 193 | 1.0 | 6.0 | 0.00 | 0.00 | 0.00 | 44 | 1008.1 |
| 20260503223028 | 59 | 214 | 1.0 | 6.0 | 0.00 | 0.00 | 0.00 | 45 | 1008.2 |
| 20260503222510 | 59 | 185 | 2.0 | 7.0 | 0.00 | 0.00 | 0.00 | 43 | 1008.2 |
| 20260503222010 | 59 | 243 | 2.0 | 11.0 | 0.00 | 0.00 | 0.00 | 43 | 1008.3 |
| 20260503221528 | 59 | 234 | 3.0 | 11.0 | 0.00 | 0.00 | 0.00 | 43 | 1008.3 |
| 20260503221010 | 59 | 195 | 3.0 | 12.0 | 0.00 | 0.00 | 0.00 | 44 | 1008.3 |
| 20260503220514 | 59 | 279 | 3.0 | 12.0 | 0.00 | 0.00 | 0.00 | 45 | 1008.3 |
| 20260503220032 | 59 | 228 | 2.0 | 10.0 | 0.00 | 0.00 | 0.00 | 45 | 1008.3 |
| 20260503215511 | 59 | 253 | 3.0 | 10.0 | 0.00 | 0.00 | 0.00 | 44 | 1008.3 |
| 20260503215011 | 59 | 251 | 2.0 | 12.0 | 0.00 | 0.00 | 0.00 | 43 | 1008.3 |
| 20260503214540 | 58 | 197 | 3.0 | 12.0 | 0.00 | 0.00 | 0.00 | 43 | 1008.3 |
| 20260503214012 | 59 | 287 | 2.0 | 12.0 | 0.00 | 0.00 | 0.00 | 45 | 1008.3 |
| 20260503213512 | 59 | 280 | 2.0 | 10.0 | 0.00 | 0.00 | 0.00 | 42 | 1008.3 |
| 20260503213030 | 59 | 224 | 2.0 | 10.0 | 0.00 | 0.00 | 0.00 | 42 | 1008.3 |
| 20260503212512 | 59 | 185 | 3.0 | 10.0 | 0.00 | 0.00 | 0.00 | 42 | 1008.2 |
| 20260503212014 | 59 | 185 | 2.0 | 9.0 | 0.00 | 0.00 | 0.00 | 43 | 1008.3 |
| 20260503211529 | 59 | 237 | 3.0 | 10.0 | 0.00 | 0.00 | 0.00 | 42 | 1008.3 |
| 20260503211011 | 59 | 307 | 3.0 | 11.0 | 0.00 | 0.00 | 0.00 | 43 | 1008.2 |
| 20260503210510 | 59 | 194 | 3.0 | 11.0 | 0.00 | 0.00 | 0.00 | 43 | 1008.3 |
| 20260503210032 | 59 | 204 | 2.0 | 9.0 | 0.00 | 0.00 | 0.00 | 44 | 1008.3 |
| 20260503205510 | 59 | 204 | 2.0 | 9.0 | 0.00 | 0.00 | 0.00 | 44 | 1008.3 |
| 20260503205013 | 59 | 247 | 3.0 | 10.0 | 0.00 | 0.00 | 0.00 | 45 | 1008.3 |
| 20260503204534 | 58 | 189 | 3.0 | 10.0 | 0.00 | 0.00 | 0.00 | 47 | 1008.6 |
| 20260503204011 | 58 | 235 | 3.0 | 10.0 | 0.00 | 0.00 | 0.00 | 47 | 1008.7 |
| 20260503203511 | 57 | 180 | 3.0 | 12.0 | 0.00 | 0.00 | 0.00 | 47 | 1008.9 |
| 20260503203029 | 57 | 185 | 3.0 | 12.0 | 0.00 | 0.00 | 0.00 | 51 | 1008.9 |
| 20260503202510 | 56 | 175 | 3.0 | 11.0 | 0.00 | 0.00 | 0.00 | 52 | 1009.0 |
| 20260503202012 | 56 | 274 | 2.0 | 11.0 | 0.00 | 0.00 | 0.00 | 53 | 1009.1 |
| 20260503201532 | 56 | 180 | 3.0 | 8.0 | 0.00 | 0.00 | 0.00 | 52 | 1009.3 |
| 20260503201014 | 56 | 276 | 2.0 | 8.0 | 0.00 | 0.00 | 0.00 | 53 | 1009.6 |
| 20260503200513 | 56 | 315 | 2.0 | 9.0 | 0.00 | 0.00 | 0.00 | 52 | 1009.8 |
| 20260503200041 | 57 | 221 | 2.0 | 11.0 | 0.00 | 0.00 | 0.00 | 50 | 1009.7 |
| 20260503195512 | 57 | 239 | 3.0 | 11.0 | 0.00 | 0.00 | 0.00 | 49 | 1009.8 |
| 20260503195010 | 57 | 273 | 4.0 | 8.0 | 0.00 | 0.00 | 0.00 | 48 | 1009.7 |
| 20260503194530 | 57 | 260 | 1.0 | 4.0 | 0.00 | 0.00 | 0.00 | 50 | 1009.6 |
| 20260503194010 | 57 | 280 | 1.0 | 6.0 | 0.00 | 0.00 | 0.00 | 48 | 1009.7 |
| 20260503193511 | 57 | 301 | 0.0 | 7.0 | 0.00 | 0.00 | 0.00 | 48 | 1009.7 |
| 20260503193033 | 57 | 277 | 2.0 | 8.0 | 0.00 | 0.00 | 0.00 | 48 | 1009.9 |
| 20260503192512 | 57 | 274 | 2.0 | 9.0 | 0.00 | 0.00 | 0.00 | 47 | 1010.0 |
| 20260503192011 | 57 | 278 | 4.0 | 9.0 | 0.00 | 0.00 | 0.00 | 46 | 1009.9 |
| 20260503191529 | 57 | 268 | 2.0 | 10.0 | 0.00 | 0.00 | 0.00 | 47 | 1009.9 |
| 20260503191013 | 57 | 263 | 4.0 | 10.0 | 0.00 | 0.00 | 0.00 | 46 | 1010.0 |
| 20260503190513 | 57 | 270 | 2.0 | 11.0 | 0.00 | 0.00 | 0.00 | 46 | 1010.0 |
| 20260503190031 | 57 | 256 | 3.0 | 11.0 | 0.00 | 0.00 | 0.00 | 47 | 1010.1 |
| 20260503185512 | 57 | 264 | 3.0 | 11.0 | 0.00 | 0.00 | 0.00 | 48 | 1010.2 |
| 20260503185013 | 57 | 245 | 3.0 | 10.0 | 0.00 | 0.00 | 0.00 | 46 | 1010.2 |
| 20260503184539 | 57 | 249 | 3.0 | 8.0 | 0.00 | 0.00 | 0.00 | 45 | 1010.3 |
| 20260503184013 | 57 | 190 | 2.0 | 8.0 | 0.00 | 0.00 | 0.00 | 46 | 1010.3 |
| 20260503183512 | 57 | 165 | 2.0 | 7.0 | 0.00 | 0.00 | 0.00 | 47 | 1010.2 |
| 20260503183030 | 57 | 233 | 2.0 | 11.0 | 0.00 | 0.00 | 0.00 | 47 | 1010.2 |
| 20260503182511 | 57 | 224 | 4.0 | 11.0 | 0.00 | 0.00 | 0.00 | 48 | 1010.3 |
| 20260503182017 | 57 | 269 | 4.0 | 14.0 | 0.00 | 0.00 | 0.00 | 49 | 1010.4 |
| 20260503181531 | 57 | 272 | 5.0 | 19.0 | 0.00 | 0.00 | 0.00 | 48 | 1010.7 |
| 20260503181010 | 58 | 268 | 8.0 | 19.0 | 0.00 | 0.00 | 0.00 | 46 | 1010.7 |
| 20260503180512 | 59 | 273 | 6.0 | 15.0 | 0.00 | 0.00 | 0.00 | 42 | 1010.4 |
| 20260503180044 | 59 | 271 | 5.0 | 15.0 | 0.00 | 0.00 | 0.00 | 43 | 1010.3 |
| 20260503175513 | 59 | 255 | 4.0 | 13.0 | 0.00 | 0.00 | 0.00 | 44 | 1010.3 |
| 20260503175012 | 59 | 257 | 7.0 | 13.0 | 0.00 | 0.00 | 0.00 | 42 | 1010.4 |
| 20260503174543 | 59 | 301 | 5.0 | 13.0 | 0.00 | 0.00 | 0.00 | 41 | 1010.4 |